Location: Broletto
(44.6000°N, 10.5833°E)
Time: 07:05:44
(UTC+00:00)

Cosmos 2227 Rocket - Pass Details

Date: 18 April 2021
Orbit: 840 x 844 km, 71.0° (Epoch: 05 May)

Event Time Altitude Azimuth Distance (km) Brightness Sun altitude
Exits shadow 19:57:02 31° 116° (ESE) 1,430 2.8 -18.3°
Maximum altitude 19:57:36 32° 104° (ESE) 1,411 2.9 -18.4°
Drops below altitude 10° 20:02:33 10° 43° (NE) 2,470 4.6 -19.1°
Sets 20:05:13 0° 34° (NE) 3,408 5.4 -19.4°
